map of PEE home
Great Circle Mapper logo
PEE - Airport
Location
City:  Perm, Russian Federation (Russia)
Name:Bolshoye Savino
ICAO / IATA:USPP / PEE

Details
Type:Airport (Aerodrome, Airfield)
Use:Public/Civil, Military
Latitude:5754'52"N (57.914517)
Longitude:5601'16"E (56.021214)
Datum:WGS 1984
Elevation:404 ft (123 m)
Variation:15.3E (WMM2015 magnetic declination)
Runways:1
Longest:10520 × 161 ft (3206 × 49 m), paved

Time
Time Zone:UTC+5 (DST+6)

Weather
METAR:USPP 220800Z 21007MPS 9999 OVC012 M01/M02 Q1004 21690245 NOSIG RMK QFE743/0990 MOD ICE INC 400-1100
TAF:USPP 220757Z 2209/2309 20006MPS 9999 BKN010 650100
TEMPO 2209/2216 18011MPS 2000 SN OVC007 530002
BECMG 2216/2218 2000 SN BR OVC007 650070
BECMG 2220/2222 26005MPS

Related Locations
Nearby:
Farthest:SCPZ: 10647 mi / 17134 km
Antartica (Antarctica) [Patriot Hills], MA, CL

Find:

   beyond  
but within

Other Information
Maps:
NOTAMs:
Links:
Sources:

  
flag of Russian Federation (Russia)   

Sectional Chart

Flight Planning
at skyvector.com

Satellite Image

Google Maps Satellite View

 

Copyright © 2004-2014 Karl L. Swartz. All rights reserved.
The Great Circle Mapper name and logo are trademarks of the Great Circle Mapper.
All other trademarks mentioned herein belong to their respective owners.
Please see credits for attibutions and further copyright information.

  Follow gcmap on Facebook Follow gcmap on Twitter

hCard Microformat

Geo Microformat